This demonstration page uses our WeatherBlox Daily Observations layout. Learn more.

Left ArrowRight Arrow

39.01783, -85.05884

Hourly Observations for November 19, 2021

Temp ( °F °C ) Dew Point ( °F °C ) Humidity (%) Winds ( mph kmh ) Pressure ( in mb ) Visibility ( mi km ) Precip ( " mm )
12:52 am 00:52 Mostly Clear 31 -0.6 19 -7.2 61 61 NW 8 13 30.42 1030 10 16 N/A
1:52 am 01:52 Partly Cloudy 30 -1.1 20 -6.7 66 66 WNW 6 9 30.43 1030 10 16 N/A
2:52 am 02:52 Cloudy 31 -0.6 19 -7.2 61 61 W 9 15 30.45 1031 10 16 N/A
3:52 am 03:52 Mostly Cloudy 31 -0.6 19 -7.2 61 61 WNW 8 13 30.46 1032 10 16 N/A
4:52 am 04:52 Mostly Cloudy 30 -1.1 18 -7.8 61 61 WNW 7 11 30.48 1032 10 16 N/A
5:52 am 05:52 Partly Cloudy 28 -2.2 18 -7.8 66 66 W 3 6 30.49 1033 10 16 N/A
6:52 am 06:52 Clear 28 -2.2 19 -7.2 69 69 W 5 7 30.51 1033 10 16 N/A
7:52 am 07:52 Partly Cloudy 27 -2.8 19 -7.2 72 72 W 7 11 30.54 1034 10 16 N/A
8:52 am 08:52 Mostly Sunny 30 -1.1 21 -6.1 69 69 W 6 9 30.56 1035 10 16 N/A
9:52 am 09:52 Mostly Sunny 34 1.1 19 -7.2 54 54 N 9 15 30.58 1035 10 16 N/A
10:52 am 10:52 Mostly Sunny 36 2.2 20 -6.7 52 52 N 3 6 30.58 1036 10 16 N/A
11:52 am 11:52 Mostly Sunny 39 3.9 20 -6.7 46 46 VRB 7 11 30.56 1035 10 16 N/A
12:52 pm 12:52 Partly Cloudy 41 5 20 -6.7 43 43 NE 5 7 30.53 1034 10 16 N/A
1:52 pm 13:52 Partly Cloudy 40 4.4 21 -6.1 47 47 SE 7 11 30.50 1033 10 16 N/A
2:52 pm 14:52 Partly Cloudy 40 4.4 20 -6.7 45 45 WSW 3 6 30.49 1033 10 16 N/A
3:52 pm 15:52 Mostly Cloudy 41 5 22 -5.6 47 47 ESE 6 9 30.47 1032 10 16 N/A
4:52 pm 16:52 Mostly Cloudy 38 3.3 22 -5.6 52 52 SSE 5 7 30.47 1032 10 16 N/A
5:52 pm 17:52 Partly Cloudy 36 2.2 22 -5.6 57 57 SSE 7 11 30.46 1032 10 16 N/A
6:52 pm 18:52 Mostly Clear 36 2.2 22 -5.6 57 57 SE 7 11 30.46 1032 10 16 N/A
7:52 pm 19:52 Partly Cloudy 35 1.7 21 -6.1 57 57 ESE 5 7 30.47 1032 10 16 N/A
8:52 pm 20:52 Mostly Cloudy 34 1.1 21 -6.1 59 59 ESE 3 6 30.46 1031 10 16 N/A
9:52 pm 21:52 Partly Cloudy 33 0.6 22 -5.6 64 64 SE 3 6 30.44 1031 10 16 N/A
10:52 pm 22:52 Partly Cloudy 31 -0.6 22 -5.6 69 69 SE 5 7 30.44 1031 10 16 N/A
11:52 pm 23:52 Mostly Cloudy 32 undefined 22 -5.6 66 66 SE 8 13 30.42 1030 10 16 N/A

Powered by AerisWeather